Theta_e
296 295 297 299 302 304 311 322 322 323 323 323 323 323 323 324 323 322 322 321 320 320 319 321 322 321 321 320 319 316 314 312
293 295 295 298 301 303 306 314 318 322 322 323 322 323 323 324 325 324 323 321 320 319 320 320 320 320 320 320 319 317 315 313
290 292 292 294 298 299 301 302 306 311 321 324 324 324 324 324 325 326 325 325 323 321 319 319 320 320 319 318 318 317 315 314
287 288 289 291 294 295 297 299 300 303 305 304 305 307 318 323 324 324 324 324 324 322 320 319 319 319 319 319 318 317 317 315
285 286 287 290 291 292 292 295 297 297 297 298 298 300 302 304 306 308 313 319 320 322 321 320 319 319 318 318 317 317 316 315
284 285 285 287 290 290 290 291 292 292 293 293 295 296 297 298 299 300 301 303 305 306 311 317 318 317 317 316 316 315 314 314
284 284 284 285 286 288 288 288 290 289 289 290 291 292 292 293 295 296 296 297 299 299 299 299 302 296 296 297 304 308 309 309
284 283 284 284 285 285 286 287 287 287 287 287 288 288 289 290 291 291 292 293 293 294 294 294 296 295 294 293 295 296 298 297
283 283 283 284 285 285 285 285 285 285 285 285 286 286 286 287 287 288 289 289 289 290 291 291 293 293 292 292 292 292 292 292
284 283 282 282 284 283 283 283 283 282 283 284 285 285 285 285 286 286 287 287 287 287 288 288 289 291 291 291 289 288 289 289
283 282 281 281 282 282 281 281 280 281 282 283 284 284 284 285 285 286 286 286 287 287 287 287 287 290 291 291 288 287 288 288
281 280 279 280 281 280 280 279 280 281 282 283 283 284 284 285 285 286 286 286 286 286 286 287 287 287 290 291 288 287 287 287
279 279 278 278 279 279 277 278 278 279 281 281 281 283 283 285 285 285 285 284 283 283 284 285 285 287 288 289 290 290 287 287
277 276 276 275 276 276 275 276 276 279 279 280 280 282 282 284 284 284 284 283 282 281 281 282 283 284 286 288 289 289 287 286
276 273 271 271 273 272 273 273 273 275 277 279 279 280 282 282 284 283 282 281 281 281 279 280 281 282 285 287 287 287 287 286
277 269 268 268 268 268 270 271 273 275 277 277 278 280 281 282 282 282 283 282 279 280 279 278 279 281 284 287 287 288 287 285
272 267 265 264 265 266 267 268 269 275 275 277 278 280 280 280 280 283 283 282 282 282 280 280 281 282 283 285 285 285 288 285
266 264 262 262 264 264 265 264 267 271 272 277 278 279 279 279 278 275 277 280 280 280 280 280 280 280 280 281 281 281 279 277
262 261 260 261 262 262 262 263 267 271 268 276 278 278 278 278 277 276 274 272 270 274 277 277 278 278 277 277 274 270 271 271
259 259 259 261 263 260 260 263 269 277 269 270 278 278 278 277 276 275 272 271 268 269 274 270 274 275 274 273 266 265 266 267
Wind_Speed
14 14 13 12 10 15 14 17 18 19 17 15 16 16 14 12 13 14 13 14 13 15 16 16 17 17 17 15 16 15 13 13
14 15 14 13 11 12 11 2 6 12 13 13 13 15 13 13 11 11 8 12 13 15 17 17 17 17 16 18 17 17 16 15
14 15 16 14 12 9 11 11 9 6 3 11 12 13 13 14 14 12 15 12 11 13 14 16 17 16 17 19 17 19 18 18
18 16 15 15 12 9 12 13 13 12 11 11 11 13 5 9 11 9 12 13 12 13 15 15 15 16 17 19 19 20 20 19
18 18 15 14 11 12 14 13 13 14 13 13 12 11 11 11 12 10 9 4 6 10 13 13 15 16 17 17 17 17 18 19
15 13 14 13 12 13 15 15 13 14 13 12 10 10 11 13 13 13 13 12 11 12 10 8 10 10 14 17 17 18 17 17
15 16 14 16 15 14 15 15 12 13 13 10 12 12 12 12 11 10 12 12 11 11 11 11 9 16 15 10 5 6 8 10
13 13 14 16 15 14 13 12 12 12 11 10 9 10 11 10 11 10 11 9 10 10 10 10 10 17 17 16 6 5 5 6
11 11 11 11 11 10 10 11 10 11 10 12 10 9 9 9 10 9 8 10 9 9 8 8 8 15 17 16 10 8 8 5
7 8 9 10 11 10 10 9 10 12 13 12 11 11 10 11 11 9 9 8 8 7 9 9 9 16 18 14 8 8 10 7
5 6 8 11 9 9 11 11 13 12 11 9 10 11 11 11 10 9 7 8 8 10 9 9 10 16 19 15 7 8 7 6
4 6 7 9 9 9 9 12 10 9 8 8 9 9 8 8 7 8 9 8 10 10 10 10 10 10 17 17 8 7 8 6
4 5 7 9 8 8 10 10 9 9 8 9 10 8 7 8 8 9 9 9 9 10 8 8 11 16 19 23 19 17 8 7
4 4 6 6 7 7 8 8 8 7 8 9 8 8 8 8 9 8 9 9 8 9 9 10 10 10 22 22 20 15 10 4
3 3 2 4 4 3 6 7 6 5 7 7 9 8 9 8 8 8 8 9 9 9 10 9 10 11 13 12 8 9 7 6
4 1 3 4 4 5 6 6 5 4 5 6 5 6 6 6 6 6 7 10 8 8 8 9 11 13 21 18 11 7 6 5
2 2 2 3 4 6 6 6 5 6 6 6 7 8 7 7 6 11 13 16 20 20 15 7 17 23 24 21 22 24 16 4
4 2 1 3 4 6 6 5 4 5 6 5 8 7 6 7 8 8 6 9 17 21 22 23 22 24 25 21 17 24 16 9
2 1 2 1 2 3 3 3 3 5 4 4 6 6 7 6 6 5 6 8 10 15 19 23 23 25 27 26 16 12 13 8
3 1 1 3 4 4 4 3 5 6 4 4 5 5 6 5 6 5 6 6 7 8 12 16 20 22 23 24 10 9 9 9
Wind_Direction
339 337 331 324 322 319 277 216 206 198 196 201 204 207 211 212 210 210 205 204 203 207 211 212 214 214 214 217 217 210 214 221
337 342 334 325 339 329 355 321 232 203 195 198 202 210 216 219 209 206 209 213 213 213 211 211 213 215 218 225 225 221 221 220
349 347 340 333 332 357 23 30 24 9 215 200 200 206 209 213 221 211 216 214 213 215 216 216 215 217 219 223 225 227 225 224
1 353 342 337 337 12 38 37 32 40 58 48 38 30 304 236 227 207 216 214 214 213 218 216 220 221 220 224 229 226 227 225
4 357 346 341 342 18 38 37 40 46 45 48 38 35 31 21 14 20 357 321 249 222 215 218 221 221 222 224 231 233 234 231
3 349 348 348 6 21 35 35 33 42 47 35 36 38 40 30 27 18 31 16 11 10 356 299 230 226 225 223 228 232 234 231
360 356 357 4 6 16 29 31 25 33 33 16 30 33 38 36 27 13 28 26 10 16 10 12 354 358 355 13 332 291 267 259
357 355 357 354 0 8 22 24 22 26 24 19 26 32 34 30 38 7 22 15 20 21 1 359 352 354 349 345 327 313 291 281
354 347 353 351 4 1 15 27 18 25 21 23 16 23 25 27 28 11 18 12 13 2 359 354 347 356 339 343 324 320 296 276
344 349 341 351 357 10 22 23 20 16 17 10 15 19 24 26 21 15 16 18 9 356 358 356 350 352 345 347 319 331 300 299
347 343 1 350 347 17 18 18 16 6 357 3 14 24 20 20 17 12 16 10 9 3 357 346 343 352 344 344 327 312 300 279
9 20 356 343 346 19 16 19 348 337 345 4 19 17 19 13 15 13 15 16 15 9 359 351 348 339 340 340 334 314 310 307
41 29 3 358 359 18 23 343 333 337 1 12 17 16 5 21 15 18 17 25 14 10 356 356 352 350 347 339 330 328 316 299
53 19 9 357 5 12 345 340 339 349 11 20 18 13 7 13 23 25 22 20 10 10 360 352 349 347 341 333 328 323 328 293
51 37 352 335 355 333 321 324 331 351 9 11 25 19 25 23 22 28 21 16 11 5 1 350 347 347 343 337 329 321 330 330
151 152 307 336 333 336 342 345 359 4 16 14 23 23 21 20 18 31 34 36 14 11 357 345 350 346 347 350 359 352 351 334
173 169 313 340 356 351 345 353 345 30 15 18 23 27 25 27 19 22 35 38 30 28 24 4 5 359 357 3 17 9 353 338
193 189 339 3 20 350 345 351 9 40 20 22 36 30 22 18 16 6 7 23 23 21 25 20 18 15 11 12 22 29 26 17
154 77 30 28 20 309 327 339 11 54 44 29 36 27 29 23 21 25 17 4 349 358 16 16 19 24 25 19 21 17 21 18
127 186 156 56 338 328 332 11 36 37 18 3 33 26 24 20 25 22 14 9 357 348 13 7 9 24 27 25 28 11 12 5